Weather in Atabayevo

Russia / Republic of Tatarstan     55°17′17″N   49°21′18″E
temp.,
°C
wind,
m/s
gust,
m/s
humid.,
%
clouds,
%
prec.,
mm/h
press.,
hPa
HPBL,
m
18 september, sat
sat1800:00+6nw476894 0.1 1016515
03:00+4nw59785 0.1 1016274
06:00+3nw611925 0.0 1017420
09:00+6nnw7981100 0.0 1019724
12:00+8nnw776189 0.1 10191439
15:00+9nnw774799 0.2 10201712
18:00+7nnw475475 0.0 1021760
21:00+5nnw59745 0.0 1022413
19 september, sun
sun1900:00+4nw47736 0.0 1023200
03:00+2nw58855 0.0 1024274
06:00+1nw4685100 0.0 1024222
09:00+5nnw5663100 0.0 1025578
12:00+8nw4448100 0.0 10251149
15:00+10nnw344361 0.0 10241368
18:00+8nnw3452100 0.0 1025568
21:00+6n3460100 0.0 1025166
20 september, mon
mon2000:00+5ne457599 0.0 1026363
03:00+4ene467957 0.0 1026366
06:00+4ene577787 0.0 1026446
09:00+6e5667100 0.0 1027661
12:00+7e6660100 0.0 1027746
15:00+9e5553100 0.0 1026925
18:00+9e6753100 0.0 1026628
21:00+9e8957100 0.0 1026541
21 september, tue
tue2100:00+8ese81059100 0.0 1025467
03:00+9ese81059100 0.0 1024547
06:00+8ese81173100 0.1 1024730
09:00+7ese81279100 0.4 1023661
12:00+8ese91177100 0.5 1022599
15:00+7e81179100 1.4 1021561
18:00+9ese8107198 0.0 1020504
21:00+9ese79715 0.1 1018352
22 september, wed
wed2200:00+9e71072100 0.0 1016316
03:00+9e71069100 0.0 1015373
06:00+10ese81068100 0.0 1014379
09:00+10ese81171100 0.1 1012501
12:00+10ese91391100 4.5 1011566
15:00+13sse91495100 12.6 1010810
18:00+12sse91395100 2.8 1012654
21:00+9sw36938 2.8 1014189